This demonstration page uses our WeatherBlox Daily Observations layout. Learn more.

Left ArrowRight Arrow

41.12389, -100.76542

Hourly Observations for January 17, 2019

Temp ( °F °C ) Dew Point ( °F °C ) Humidity (%) Winds ( mph kmh ) Pressure ( in mb ) Visibility ( mi km ) Precip ( " mm )
12:18 am 00:18 Cloudy with Mist and Fog 28 -2.2 26 -3.3 92 92 W 8 13 30.18 1022 4 6 0.00 0.00
12:53 am 00:53 Cloudy with Mist and Fog 28 -2.2 27 -2.8 96 96 W 8 13 30.12 1020 4 6 0.00 0.00
1:53 am 01:53 Cloudy with Mist and Fog 29 -1.7 27 -2.8 92 92 WNW 6 9 30.10 1019 4 6 0.00 0.00
2:53 am 02:53 Cloudy with Mist and Fog 29 -1.7 27 -2.8 92 92 NW 8 13 30.11 1020 5 8 0.00 0.00
3:53 am 03:53 Cloudy with Mist and Fog 29 -1.7 27 -2.8 92 92 NW 12 19 30.11 1020 2 3 0.00 0.00
4:02 am 04:02 Cloudy with Mist and Fog 29 -1.7 27 -2.8 92 92 NNW 9 15 30.15 1021 1 2 0.00 0.00
4:15 am 04:15 Cloudy with Mist and Fog 29 -1.7 28 -2.2 96 96 NW 7 11 30.15 1021 2 3 0.00 0.00
4:32 am 04:32 Cloudy with Mist and Fog 29 -1.7 28 -2.2 96 96 NW 9 15 30.15 1021 3 5 0.00 0.00
4:53 am 04:53 Cloudy with Mist and Fog 29 -1.7 28 -2.2 96 96 WNW 7 11 30.11 1020 3 4 0.00 0.00
5:18 am 05:18 Cloudy with Mist and Fog 29 -1.7 28 -2.2 96 96 NW 10 17 30.15 1021 2 3 0.00 0.00
5:31 am 05:31 Cloudy with Mist and Fog 29 -1.7 27 -2.8 92 92 NNW 8 13 30.12 1020 1 2 0.00 0.00
5:42 am 05:42 Cloudy with Mist and Fog 29 -1.7 28 -2.2 96 96 NW 7 11 30.12 1020 2 2 0.00 0.00
5:51 am 05:51 Cloudy with Mist and Fog 28 -2 28 -2 100 100 NW 5 7 30.12 1020 1 2 0.00 0.00
5:53 am 05:53 Cloudy with Mist and Fog 29 -1.7 28 -2.2 96 96 NNW 6 9 30.08 1019 1 2 0.00 0.00
6:09 am 06:09 Mostly Cloudy with Mist and Fog 28 -2.2 28 -2.2 100 100 NW 3 6 30.12 1020 1 1 0.00 0.00
6:53 am 06:53 Mostly Cloudy with Freezing Fog 28 -2.2 27 -2.8 96 96 N 5 7 30.09 1019 1 1 0.00 0.00
7:12 am 07:12 Mostly Cloudy with Freezing Fog 28 -2.2 26 -3.3 92 92 WNW 12 19 30.18 1022 0 0 0.00 0.00
7:19 am 07:19 Mostly Cloudy with Freezing Fog 27 -2.8 26 -3.3 96 96 NW 8 13 30.18 1022 1 1 0.00 0.00
7:53 am 07:53 Mostly Cloudy with Freezing Fog 25 -3.9 25 -3.9 100 100 W 5 7 30.11 1020 1 1 0.00 0.00
8:23 am 08:23 Mostly Cloudy with Freezing Fog 25 -3.9 24 -4.4 96 96 NW 5 7 30.18 1022 0 0 0.00 0.00
8:53 am 08:53 Mostly Cloudy with Freezing Fog 25 -3.9 24 -4.4 96 96 W 6 9 30.11 1020 0 0 0.00 0.00
9:53 am 09:53 Mostly Cloudy with Freezing Fog 24 -4.4 23 -5 96 96 Calm 30.14 1021 1 1 0.00 0.00
10:24 am 10:24 Cloudy with Mist and Fog 25 -3.9 24 -4.4 96 96 Calm 30.21 1023 1 2 0.00 0.00
10:38 am 10:38 Cloudy with Mist and Fog 26 -3.3 24 -4.4 92 92 Calm 30.21 1023 2 3 0.00 0.00
10:44 am 10:44 Cloudy with Mist and Fog 26 -3.3 25 -3.9 96 96 Calm 30.21 1023 3 5 0.00 0.00
10:53 am 10:53 Cloudy with Mist and Fog 27 -2.8 25 -3.9 92 92 Calm 30.13 1020 3 5 0.00 0.00
11:26 am 11:26 Cloudy with Mist and Fog 29 -1.7 27 -2.8 92 92 VRB 3 6 30.18 1022 2 3 0.00 0.00
11:35 am 11:35 Cloudy with Mist and Fog 29 -1.7 27 -2.8 92 92 E 3 6 30.18 1022 5 8 0.00 0.00
11:53 am 11:53 Mostly Cloudy 31 -0.6 29 -1.7 92 92 Calm 30.11 1020 7 11 0.00 0.00
12:13 pm 12:13 Partly Cloudy 32 0 30 -1.1 92 92 ESE 3 6 30.15 1021 10 16 0.00 0.00
12:53 pm 12:53 Sunny 34 1.1 30 -1.1 85 85 ESE 5 7 30.08 1019 10 16 0.00 0.00
1:53 pm 13:53 Sunny 39 3.9 31 -0.6 73 73 ESE 7 11 30.04 1017 10 16 0.00 0.00
2:53 pm 14:53 Sunny 41 5 31 -0.6 67 67 SE 9 15 30.01 1016 10 16 0.00 0.00
3:53 pm 15:53 Sunny 40 4.4 31 -0.6 70 70 SE 14 22 30.00 1016 10 16 0.00 0.00
4:53 pm 16:53 Mostly Sunny 37 2.8 30 -1.1 76 76 SE 14 22 30.01 1016 10 16 0.00 0.00
5:53 pm 17:53 Mostly Cloudy 32 0 29 -1.7 88 88 ESE 14 22 30.01 1016 7 11 0.00 0.00
6:09 pm 18:09 Cloudy with Mist and Fog 32 0 29 -1.7 88 88 ESE 14 22 30.03 1017 6 10 0.00 0.00
6:18 pm 18:18 Cloudy with Mist and Fog 32 0 30 -1.1 92 92 SE 14 22 30.03 1017 6 10 0.00 0.00
6:53 pm 18:53 Cloudy with Mist and Fog 32 0 30 -1.1 92 92 ESE 13 20 29.99 1016 4 6 0.00 0.00
7:53 pm 19:53 Cloudy with Mist and Fog 31 -0.6 29 -1.7 92 92 SE 10 17 30.00 1016 3 4 0.00 0.00
8:06 pm 20:06 Cloudy with Mist and Fog 31 -0.6 30 -1.1 96 96 SSE 13 20 30.00 1016 2 2 0.00 0.00
8:25 pm 20:25 Cloudy with Mist and Fog 30 -1.1 29 -1.7 96 96 SE 14 22 30.03 1017 1 1 0.00 0.00
8:37 pm 20:37 Cloudy with Mist and Fog 30 -1.1 29 -1.7 96 96 SE 12 19 30.03 1017 2 2 0.00 0.00
8:53 pm 20:53 Mostly Cloudy with Mist and Fog 30 -1.1 29 -1.7 96 96 SE 14 22 29.98 1015 1 2 0.00 0.00
9:09 pm 21:09 Cloudy with Mist and Fog 30 -1.1 29 -1.7 96 96 SE 15 24 30.03 1017 2 2 0.00 0.00
9:38 pm 21:38 Mostly Cloudy with Mist and Fog 30 -1.1 29 -1.7 96 96 SE 16 26 30.03 1017 1 2 0.00 0.00
9:53 pm 21:53 Cloudy with Mist and Fog 30 -1.1 29 -1.7 96 96 SE 16 26 29.97 1015 2 3 0.00 0.00
10:07 pm 22:07 Mostly Cloudy with Mist and Fog 30 -1.1 29 -1.7 96 96 SE 17 28 30.00 1016 1 2 0.00 0.00
10:48 pm 22:48 Mostly Cloudy with Mist and Fog 30 -1 28 -2 93 93 SE 13 20 29.97 1015 1 1 0.00 0.00
10:53 pm 22:53 Mostly Cloudy with Mist and Fog 30 -1.1 29 -1.7 96 96 SE 14 22 29.95 1014 1 1 0.00 0.00
11:20 pm 23:20 Mostly Cloudy with Mist and Fog 30 -1.1 29 -1.7 96 96 SE 15 24 29.94 1014 1 2 0.00 0.00
11:34 pm 23:34 Mostly Cloudy with Mist and Fog 29 -1.7 28 -2.2 96 96 SE 16 26 29.97 1015 1 1 0.00 0.00
11:49 pm 23:49 Mostly Cloudy with Mist and Fog 28 -2 28 -2 100 100 SE 15 24 29.97 1015 1 2 0.00 0.00
11:53 pm 23:53 Mostly Cloudy with Mist and Fog 29 -1.7 28 -2.2 96 96 SE 15 24 29.92 1013 1 1 0.00 0.00

Powered by AerisWeather